Change the Weather History Date:

Thursday, October 18, 2012

  Actual Average Record
Temperature  
Mean Temperature 48 °F 48 °F  
Max Temperature 62 °F 63 °F 77 °F (1974)
Min Temperature 33 °F 33 °F 22 °F (1984)
Degree Days  
Heating Degree Days 17 17  
Month to date heating degree days 214 242  
Since 1 July heating degree days 296 450  
Cooling Degree Days 0 0  
Month to date cooling degree days 0 0  
Year to date cooling degree days 667 472  
Moisture  
Dew Point 34 °F    
Average Humidity 63    
Maximum Humidity 89    
Minimum Humidity 36    
Precipitation  
Precipitation T in 0.02 in 0.34 in (2007)
Month to date precipitation 0.25 0.25  
Year to date precipitation 5.77 5.38  
Snow  
Snow 0.00 in 0.00 in 0.00 in (2002)
Month to date snowfall 0.0 0.0  
Year to date snowfall 21.5 8.6  
Since 1 July snowfall 0.0 0.0  
Snow Depth 0.00 in    
Sea Level Pressure  
Sea Level Pressure 30.11 in    
Wind  
Wind Speed 3 mph (WSW)    
Max Wind Speed 7 mph    
Max Gust Speed 17 mph    
Visibility 10 miles    
Events      
T = Trace of Precipitation, MM = Missing Value Source: NWS Daily Summary

Daily Weather History Graph

Daily Weather History Graph

Search for Another Location

Airport or City:

Trip Planner

Search our weather history database for the weather conditions in past years. The results will help you decide how hot, cold, wet, or windy it might be!

Date:

Astronomy

Oct. 18, 2012 Rise Set
Actual Time 7:24 AM PDT 6:08 PM PDT
Civil Twilight 6:54 AM PDT 6:39 PM PDT
Nautical Twilight 6:18 AM PDT 7:14 PM PDT
Astronomical Twilight 5:44 AM PDT 7:49 PM PDT
Moon 11:25 AM PDT (10/18) 8:35 PM PDT (10/18)
Length of Visible Light 11h 45m
Length of Day
10h 44m
Waxing Crescent, 15% of the Moon is Illuminated
Oct 18
Waxing Crescent
Oct 21
First Quarter
Oct 29
Full
Nov 6
Last Quarter
Nov 13
New

Hourly Weather History & Observations

Time (PDT) Temp. Windchill Dew Point Humidity Pressure Visibility Wind Dir Wind Speed Gust Speed Precip Events Conditions
12:53 AM 43.0 °F - 34.0 °F 71% 30.25 in 10.0 mi Calm Calm - N/A   Clear
1:53 AM 37.0 °F 31.6 °F 30.9 °F 79% 30.27 in 10.0 mi West 6.9 mph - N/A   Clear
2:53 AM 36.0 °F 31.1 °F 30.0 °F 79% 30.27 in 10.0 mi West 5.8 mph - N/A   Clear
3:53 AM 35.1 °F - 30.0 °F 82% 30.26 in 10.0 mi Calm Calm - N/A   Clear
4:53 AM 35.1 °F 30.1 °F 30.0 °F 82% 30.25 in 10.0 mi NW 5.8 mph - N/A   Clear
5:53 AM 34.0 °F - 30.0 °F 85% 30.26 in 10.0 mi North - - N/A   Clear
6:53 AM 33.1 °F 26.9 °F 28.9 °F 85% 30.26 in 10.0 mi West 6.9 mph - N/A   Clear
7:53 AM 35.1 °F - 30.9 °F 85% 30.25 in 10.0 mi Calm Calm - N/A   Clear
8:53 AM 39.0 °F - 33.1 °F 79% 30.25 in 10.0 mi Calm Calm - N/A   Clear
9:53 AM 46.9 °F - 35.1 °F 63% 30.24 in 10.0 mi Calm Calm - N/A   Clear
10:53 AM 52.0 °F - 36.0 °F 54% 30.21 in 10.0 mi Calm Calm - N/A   Clear
11:53 AM 57.0 °F - 35.1 °F 44% 30.19 in 10.0 mi Calm Calm - N/A   Clear
12:53 PM 59.0 °F - 34.0 °F 39% 30.14 in 10.0 mi Calm Calm - N/A   Clear
1:53 PM 61.0 °F - 35.1 °F 38% 30.11 in 10.0 mi Variable 4.6 mph - N/A   Clear
2:53 PM 61.0 °F - 34.0 °F 36% 30.07 in 10.0 mi South 4.6 mph - N/A   Clear
3:53 PM 61.0 °F - 34.0 °F 36% 30.03 in 10.0 mi South 6.9 mph - N/A   Clear
4:53 PM 60.1 °F - 34.0 °F 38% 30.00 in 10.0 mi South 3.5 mph - N/A   Clear
5:53 PM 57.9 °F - 35.1 °F 42% 29.96 in 10.0 mi SSW 3.5 mph - N/A   Clear
6:53 PM 50.0 °F - 37.0 °F 61% 29.94 in 10.0 mi Calm Calm - N/A   Clear
7:53 PM 46.9 °F - 37.9 °F 71% 29.93 in 10.0 mi WNW 5.8 mph - N/A   Clear
8:53 PM 46.0 °F 43.1 °F 37.9 °F 73% 29.91 in 10.0 mi West 5.8 mph - N/A   Clear
9:53 PM 44.1 °F 40.8 °F 37.0 °F 76% 29.92 in 10.0 mi West 5.8 mph - N/A   Partly Cloudy
10:53 PM 46.9 °F - 39.0 °F 74% 29.91 in 10.0 mi West 5.8 mph 17.3 mph N/A   Overcast
11:53 PM 45.0 °F 43.5 °F 39.0 °F 80% 29.87 in 10.0 mi West 3.5 mph - 0.00 in   Partly Cloudy